CDT,Max TemperatureF,Mean TemperatureF,Min TemperatureF,Max Dew PointF,MeanDew PointF,Min DewpointF,Max Humidity, Mean Humidity, Min Humidity, Max Sea Level PressureIn, Mean Sea Level PressureIn, Min Sea Level PressureIn, Max VisibilityMiles, Mean VisibilityMiles, Min VisibilityMiles, Max Wind SpeedMPH, Mean Wind SpeedMPH, Max Gust SpeedMPH,PrecipitationIn, CloudCover, Events, WindDirDegrees
2013-10-1,77,65,53,52,43,33,67,44,21,29.99,29.80,29.58,10,10,10,17,11,23,0.00,0,,263
2013-10-2,78,61,44,56,46,34,94,66,23,30.04,29.93,29.82,10,8,2,17,7,24,0.78,5,Rain-Thunderstorm,90
2013-10-3,61,59,55,58,56,54,97,91,82,29.92,29.86,29.81,10,7,1,13,7,,0.19,8,Rain-Thunderstorm,40
2013-10-4,59,57,55,57,55,53,100,91,83,29.97,29.91,29.83,10,7,2,18,12,26,0.40,8,Rain-Thunderstorm,57
2013-10-5,61,52,44,59,51,43,100,86,58,29.83,29.79,29.74,10,8,1,22,10,32,0.07,6,Rain-Thunderstorm,133
2013-10-6,55,46,39,50,45,37,100,93,82,29.86,29.72,29.69,10,5,0,14,4,22,0.09,6,Fog-Rain,312
2013-10-7,68,54,42,46,42,37,96,68,33,29.98,29.93,29.84,10,10,10,7,4,,0.00,1,,239
2013-10-8,79,64,50,46,44,41,77,51,30,29.96,29.88,29.81,10,10,10,23,10,33,0.00,0,,170
2013-10-9,77,68,59,51,48,46,67,55,37,30.03,29.99,29.93,10,10,10,18,12,22,0.00,0,,176
2013-10-10,79,65,52,54,49,45,77,59,36,30.03,29.95,29.87,10,10,9,20,8,25,0.00,0,,136
2013-10-11,75,66,57,61,54,50,86,66,46,29.86,29.73,29.62,10,10,4,28,15,40,0.08,2,Rain-Thunderstorm,150
2013-10-12,55,50,45,49,42,37,83,70,57,30.19,29.94,29.73,10,10,10,17,10,29,0.00,4,,242
2013-10-13,61,48,36,42,36,32,93,67,35,30.44,30.37,30.22,10,10,2,8,3,,0.00,0,,240
2013-10-14,55,48,42,48,40,37,93,71,51,30.40,30.22,29.96,10,10,3,20,6,25,0.50,5,Rain,93
2013-10-15,54,50,46,52,48,44,100,92,87,29.91,29.73,29.66,10,4,2,23,12,34,0.90,8,Rain,143
2013-10-16,55,48,42,45,40,35,93,79,47,29.96,29.90,29.82,10,9,5,14,9,21,0.01,6,,319
2013-10-17,61,50,39,46,40,34,93,79,41,29.89,29.83,29.77,10,9,5,14,5,22,0.09,4,Rain,280
2013-10-18,54,45,37,41,36,28,93,74,38,29.99,29.91,29.85,10,10,7,14,9,18,0.04,5,Rain,299
2013-10-19,48,40,33,38,35,29,93,81,66,29.83,29.75,29.68,10,10,6,16,7,26,0.02,6,Rain,257
2013-10-20,48,39,30,41,34,29,96,83,66,29.89,29.74,29.60,10,10,5,17,6,25,0.05,7,Rain,286
2013-10-21,39,34,28,27,23,20,82,61,46,29.98,29.95,29.89,10,10,10,18,12,25,0.00,6,,287
2013-10-22,41,32,25,32,28,22,92,76,63,30.05,30.01,29.98,10,10,8,8,2,,0.00,6,Rain-Snow,309
2013-10-23,39,36,32,29,24,19,82,64,48,30.12,30.05,30.01,10,10,10,14,7,18,0.00,8,,305
2013-10-24,46,39,34,31,26,21,79,62,49,30.33,30.25,30.13,10,10,10,13,8,20,0.00,7,,303
2013-10-25,59,42,26,41,33,23,96,67,47,30.34,30.08,29.80,10,10,9,20,8,29,0.00,2,,224
2013-10-26,50,44,36,38,29,28,73,59,48,30.12,30.02,29.81,10,10,10,20,13,31,0.00,3,,305
2013-10-27,57,42,28,34,29,25,89,63,39,30.14,29.94,29.83,10,10,9,15,6,24,0.00,0,,251
2013-10-28,44,38,30,30,24,20,78,59,42,30.44,30.37,30.17,10,10,10,14,10,21,0.00,0,,45
2013-10-29,42,37,32,37,29,22,89,69,59,30.41,30.24,30.09,10,10,5,12,7,,0.02,7,Rain,70
2013-10-30,50,44,39,49,44,37,100,95,93,30.09,29.90,29.66,6,2,0,10,5,,0.08,8,Fog-Rain,83
2013-10-31,50,44,39,49,41,37,96,90,81,29.66,29.52,29.40,10,5,0,12,5,,0.03,8,Fog-Rain,275